Precipitable_Water
1.31 1.30 1.32 1.48 1.52 1.52 1.51 1.50 1.49 1.46 1.49 1.55 1.60 1.64 1.66 1.64 1.57 1.48 1.42 1.39 1.45 1.44 1.43 1.43 1.44 1.45 1.42 1.40 1.38 1.38 1.39 1.41 1.44 1.45 1.44 1.49 1.52 1.54 1.47 1.40 1.34 1.28 1.21
1.28 1.20 1.34 1.45 1.50 1.50 1.53 1.51 1.46 1.43 1.49 1.47 1.53 1.58 1.64 1.54 1.45 1.42 1.32 1.29 1.41 1.47 1.52 1.48 1.45 1.43 1.43 1.42 1.40 1.38 1.36 1.36 1.38 1.37 1.38 1.44 1.48 1.47 1.43 1.39 1.25 1.21 1.16
1.17 1.16 1.40 1.44 1.47 1.48 1.43 1.47 1.38 1.33 1.28 1.30 1.41 1.47 1.47 1.38 1.38 1.35 1.30 1.35 1.40 1.45 1.42 1.42 1.41 1.40 1.38 1.37 1.46 1.44 1.40 1.39 1.41 1.41 1.44 1.47 1.51 1.48 1.39 1.31 1.24 1.20 1.17
1.18 1.15 1.37 1.41 1.43 1.39 1.37 1.37 1.24 1.23 1.21 1.19 1.23 1.24 1.26 1.33 1.37 1.31 1.28 1.31 1.39 1.43 1.39 1.35 1.34 1.32 1.31 1.38 1.49 1.52 1.42 1.34 1.36 1.42 1.52 1.52 1.46 1.38 1.28 1.18 1.13 1.14 1.12
1.18 1.15 1.30 1.32 1.31 1.28 1.24 1.22 1.18 1.17 1.17 1.19 1.19 1.24 1.27 1.28 1.27 1.31 1.25 1.24 1.28 1.33 1.35 1.31 1.24 1.20 1.15 1.15 1.14 1.21 1.21 1.21 1.24 1.29 1.30 1.26 1.18 1.12 1.07 1.05 1.04 1.06 1.06
1.18 1.17 1.17 1.22 1.22 1.20 1.19 1.17 1.17 1.18 1.18 1.21 1.20 1.27 1.28 1.30 1.30 1.27 1.30 1.27 1.27 1.29 1.25 1.20 1.16 1.07 1.03 0.99 0.98 1.01 1.08 1.10 1.22 1.20 1.12 1.11 1.09 1.12 1.12 1.11 1.10 1.08 1.05
1.17 1.18 1.12 1.14 1.17 1.16 1.16 1.14 1.17 1.15 1.12 1.12 1.18 1.20 1.25 1.31 1.36 1.32 1.29 1.27 1.26 1.18 1.13 1.09 1.04 1.01 0.99 0.98 0.97 1.00 1.05 1.07 1.09 1.07 1.04 1.01 1.06 1.05 1.02 1.00 0.96 0.93 0.92
1.19 1.23 1.19 1.14 1.13 1.12 1.11 1.11 1.10 1.08 1.08 1.08 1.08 1.16 1.23 1.24 1.25 1.24 1.23 1.20 1.15 1.09 1.04 1.02 1.00 0.98 0.94 0.92 0.95 0.99 1.02 1.01 1.02 1.08 1.06 1.04 1.04 1.00 0.97 0.93 0.88 0.86 0.86
1.23 1.27 1.26 1.20 1.17 1.16 1.12 1.13 1.13 1.11 1.07 1.07 1.07 1.05 1.05 1.08 1.14 1.14 1.10 1.07 1.07 1.05 1.00 0.99 0.98 0.96 0.95 0.94 0.96 0.97 0.98 0.98 0.98 1.00 0.99 0.96 0.92 0.87 0.82 0.79 0.79 0.80 0.81
1.20 1.25 1.25 1.22 1.21 1.20 1.15 1.16 1.13 1.12 1.15 1.06 0.99 0.99 0.98 0.97 0.95 0.95 0.96 0.97 0.98 1.00 1.00 0.97 0.95 0.95 0.92 0.95 0.96 0.95 0.93 0.90 0.87 0.84 0.81 0.81 0.81 0.78 0.74 0.72 0.74 0.76 0.74
1.12 1.21 1.20 1.19 1.24 1.20 1.16 1.19 1.18 1.16 1.18 1.06 0.96 0.95 0.93 0.91 0.90 0.89 0.89 0.90 0.92 0.96 1.00 0.98 0.93 0.90 0.88 0.89 0.93 0.91 0.88 0.86 0.84 0.78 0.78 0.79 0.79 0.77 0.73 0.70 0.69 0.69 0.71
0.95 1.13 1.19 1.17 1.19 1.21 1.19 1.19 1.18 1.12 1.09 0.99 0.95 0.91 0.87 0.86 0.87 0.88 0.88 0.89 0.90 0.92 0.96 0.95 0.94 0.88 0.85 0.83 0.82 0.84 0.83 0.81 0.79 0.75 0.75 0.77 0.76 0.75 0.72 0.69 0.67 0.68 0.69
0.94 1.07 1.13 1.15 1.14 1.11 1.10 1.13 1.14 1.12 1.03 0.99 0.94 0.89 0.83 0.83 0.84 0.85 0.84 0.84 0.82 0.84 0.85 0.81 0.78 0.80 0.78 0.76 0.73 0.71 0.70 0.71 0.72 0.73 0.74 0.74 0.74 0.72 0.72 0.69 0.67 0.66 0.67
0.93 1.02 1.10 1.13 1.09 1.09 1.10 1.07 1.04 1.01 1.00 0.94 0.94 0.90 0.83 0.81 0.81 0.82 0.82 0.81 0.80 0.79 0.75 0.75 0.73 0.71 0.68 0.65 0.62 0.61 0.61 0.61 0.65 0.68 0.69 0.70 0.69 0.68 0.69 0.68 0.68 0.68 0.68
0.87 0.95 1.01 1.06 1.05 1.06 1.06 1.06 1.01 0.96 0.96 0.96 0.93 0.90 0.88 0.84 0.83 0.83 0.81 0.80 0.80 0.79 0.76 0.72 0.68 0.63 0.58 0.56 0.54 0.52 0.52 0.52 0.54 0.55 0.58 0.61 0.65 0.67 0.67 0.68 0.70 0.70 0.70
0.83 0.86 0.96 0.97 1.00 1.05 1.04 1.03 0.97 0.98 1.00 0.97 0.91 0.89 0.87 0.88 0.85 0.82 0.82 0.81 0.82 0.81 0.78 0.73 0.69 0.64 0.59 0.57 0.54 0.52 0.50 0.49 0.49 0.49 0.53 0.55 0.57 0.62 0.65 0.67 0.70 0.71 0.72
0.82 0.86 0.89 0.93 0.99 1.01 1.00 1.00 0.99 0.98 0.97 0.93 0.89 0.90 0.87 0.87 0.87 0.83 0.84 0.84 0.86 0.86 0.80 0.75 0.71 0.66 0.61 0.59 0.56 0.57 0.56 0.55 0.53 0.50 0.51 0.52 0.55 0.59 0.61 0.64 0.69 0.72 0.72
0.82 0.81 0.89 0.93 0.96 0.97 0.94 0.98 0.97 0.99 0.98 0.90 0.90 0.92 0.87 0.87 0.89 0.85 0.85 0.87 0.86 0.84 0.81 0.73 0.68 0.64 0.63 0.62 0.63 0.63 0.63 0.63 0.60 0.58 0.57 0.56 0.56 0.57 0.58 0.61 0.62 0.64 0.65
0.81 0.82 0.86 0.93 0.98 1.00 0.98 1.00 0.99 0.99 0.95 0.90 0.93 0.93 0.89 0.90 0.91 0.88 0.87 0.88 0.88 0.83 0.78 0.74 0.72 0.70 0.66 0.68 0.68 0.66 0.61 0.60 0.60 0.58 0.56 0.58 0.62 0.64 0.65 0.66 0.64 0.64 0.64
0.84 0.84 0.89 0.93 0.99 0.97 0.97 0.99 0.96 0.96 0.92 0.95 0.93 0.91 0.90 0.88 0.89 0.88 0.89 0.87 0.86 0.82 0.77 0.77 0.75 0.76 0.72 0.69 0.66 0.59 0.59 0.60 0.60 0.58 0.59 0.65 0.65 0.61 0.61 0.58 0.57 0.55 0.56
0.86 0.85 0.88 0.88 0.93 0.90 0.83 0.82 0.82 0.79 0.87 0.92 0.93 0.92 0.89 0.87 0.88 0.87 0.88 0.87 0.87 0.81 0.79 0.80 0.77 0.72 0.70 0.69 0.61 0.58 0.58 0.61 0.61 0.62 0.63 0.64 0.58 0.57 0.55 0.52 0.46 0.40 0.41
0.83 0.86 0.89 0.89 0.91 0.90 0.87 0.84 0.85 0.84 0.88 0.91 0.94 0.91 0.89 0.89 0.89 0.91 0.92 0.89 0.87 0.83 0.80 0.79 0.77 0.71 0.70 0.68 0.54 0.55 0.46 0.52 0.59 0.58 0.61 0.56 0.56 0.49 0.42 0.41 0.33 0.38 0.40
0.81 0.84 0.88 0.92 0.94 0.94 0.93 0.90 0.87 0.89 0.90 0.89 0.89 0.87 0.87 0.87 0.89 0.92 0.96 0.92 0.87 0.86 0.81 0.78 0.73 0.69 0.61 0.65 0.64 0.51 0.41 0.39 0.43 0.53 0.52 0.55 0.51 0.42 0.39 0.39 0.33 0.37 0.38
0.81 0.90 0.93 0.96 0.97 0.98 1.00 0.90 0.82 0.76 0.75 0.84 0.87 0.88 0.86 0.88 0.92 0.96 0.97 0.92 0.89 0.88 0.82 0.75 0.71 0.66 0.62 0.55 0.59 0.58 0.56 0.51 0.37 0.34 0.45 0.44 0.46 0.40 0.38 0.34 0.35 0.36 0.36
0.82 0.87 0.93 0.98 1.01 1.02 1.01 0.96 0.88 0.82 0.85 0.89 0.89 0.85 0.86 0.89 0.95 0.98 0.97 0.93 0.91 0.90 0.85 0.76 0.67 0.64 0.62 0.51 0.45 0.45 0.46 0.49 0.50 0.41 0.34 0.38 0.43 0.41 0.38 0.33 0.36 0.34 0.37
0.83 0.89 0.95 0.97 0.99 1.03 1.02 0.97 0.92 0.85 0.87 0.83 0.82 0.82 0.85 0.89 0.95 0.98 0.96 0.95 0.94 0.89 0.84 0.73 0.66 0.61 0.53 0.50 0.50 0.48 0.45 0.41 0.41 0.41 0.40 0.38 0.36 0.38 0.35 0.35 0.35 0.34 0.37
Wind_Speed
16 16 16 16 16 15 15 14 13 13 12 12 12 11 11 10 10 10 10 10 10 11 12 12 11 11 11 10 10 10 9 9 9 9 10 10 10 10 11 11 11 11 11
19 18 18 18 18 17 17 16 15 14 14 13 12 11 11 10 11 11 10 11 11 12 11 11 10 10 9 9 9 8 8 8 8 9 9 9 10 10 10 10 11 11 11
19 19 19 18 18 18 17 17 15 15 14 13 12 11 11 11 11 11 12 12 11 11 10 10 9 9 9 10 9 9 8 8 9 9 9 10 10 10 11 11 11 11 11
19 19 18 18 18 17 17 16 15 15 14 13 13 12 13 13 13 12 12 12 11 11 10 9 10 10 11 11 11 11 11 10 10 10 11 11 10 10 10 10 10 10 10
19 18 18 18 17 16 16 15 15 15 14 14 13 13 13 13 13 12 12 12 11 10 10 10 10 10 10 10 10 11 11 11 11 10 10 10 9 9 9 9 10 9 9
18 18 17 17 16 16 15 15 14 14 13 13 13 13 13 13 12 12 11 10 10 9 8 8 10 10 10 10 10 10 10 11 11 10 10 9 9 9 9 9 8 8 8
17 17 16 16 16 15 15 14 14 13 13 13 13 12 12 12 13 11 10 10 8 8 9 9 9 10 10 10 10 10 10 10 9 9 9 8 8 8 8 8 8 8 8
16 16 16 16 15 15 14 14 13 13 13 13 12 12 11 11 10 9 9 8 8 9 10 10 10 10 9 9 9 9 9 8 8 7 7 7 7 7 7 8 8 8 8
15 15 15 15 14 14 13 13 12 12 12 12 12 12 12 11 11 10 10 10 10 10 10 10 10 9 9 8 8 8 7 6 6 6 6 6 6 7 7 8 8 8 8
14 14 14 14 13 13 12 11 11 11 11 11 11 11 11 11 11 11 11 10 10 10 10 9 8 8 8 7 6 5 5 4 4 5 5 6 7 7 8 8 8 8 9
14 14 14 13 12 12 11 11 10 10 11 10 11 10 10 10 9 9 9 9 9 8 8 7 7 6 5 5 4 3 2 2 3 4 5 6 7 8 8 9 9 9 9
15 14 14 13 12 11 10 10 10 9 9 9 9 9 8 8 8 8 8 7 7 6 5 5 4 4 3 2 2 2 2 3 4 5 6 7 8 8 9 9 10 10 11
15 14 14 13 12 11 10 10 9 9 9 8 7 7 7 7 7 7 6 5 5 5 4 3 3 2 2 1 2 2 3 4 5 6 7 8 9 10 10 11 11 12 13
15 14 13 13 12 11 11 11 10 9 9 8 6 6 6 6 6 5 5 4 4 4 3 2 2 2 2 2 3 4 5 6 7 7 8 9 10 11 12 12 13 14 16
15 15 14 13 12 11 11 11 10 10 9 8 7 6 5 5 4 4 3 3 3 2 2 1 2 2 3 4 5 5 6 7 8 9 10 11 12 13 14 15 16 17 18
15 15 14 13 12 12 12 11 11 11 10 9 7 6 6 5 4 4 3 2 1 1 1 2 3 4 4 5 6 7 7 8 9 10 11 12 13 14 15 17 18 19 20
15 15 15 13 13 13 12 12 11 11 10 10 9 7 7 5 5 3 2 1 1 1 2 3 4 4 5 6 7 8 9 10 11 11 12 13 14 15 16 18 19 20 22
16 15 15 14 13 13 12 12 12 11 11 10 10 9 8 7 6 4 3 2 2 2 3 4 5 5 6 7 8 9 10 11 11 12 12 13 15 16 17 19 20 22 24
17 16 15 14 14 13 12 13 12 13 12 12 11 10 9 8 7 6 5 4 3 4 4 5 5 6 7 9 10 10 11 11 11 12 13 13 15 17 19 21 23 25 28
18 17 16 15 15 13 13 13 13 13 13 13 12 12 11 9 8 7 6 5 5 5 6 6 7 8 9 10 10 10 11 11 12 12 14 15 18 20 22 24 27 29 30
20 19 18 17 16 15 14 14 14 14 14 14 13 13 12 11 10 9 8 7 7 7 7 8 8 9 10 11 10 11 11 12 13 14 17 17 20 22 25 27 29 31 32
22 21 20 18 18 17 16 16 15 15 15 15 14 14 13 12 11 10 9 8 8 8 8 9 9 10 10 11 11 12 13 14 15 18 18 21 22 25 28 29 32 32 34
23 23 22 20 20 18 18 17 16 15 15 15 15 14 14 13 13 11 10 9 8 8 9 9 10 10 10 11 12 12 14 15 18 19 21 22 25 28 29 30 33 34 35
25 24 23 22 22 20 20 20 19 17 16 16 16 15 15 14 13 12 11 10 9 9 10 11 11 11 11 11 13 14 15 17 19 21 22 25 27 30 31 33 34 35 37
26 26 25 25 24 23 23 22 21 19 18 17 17 16 16 15 14 13 12 11 10 11 11 12 12 12 12 13 14 16 17 19 21 23 25 27 30 31 33 34 35 37 38
28 27 27 27 26 25 25 24 23 22 20 19 18 18 17 16 15 14 14 13 12 12 12 12 12 13 13 15 16 18 20 22 24 26 28 30 32 31 34 36 36 38 40
Wind_Direction
134 131 130 128 128 127 126 126 124 127 130 133 135 135 133 131 126 124 123 121 114 111 107 103 106 103 101 99 97 96 91 88 84 80 76 72 69 67 65 62 59 56 57
130 129 126 123 122 120 120 119 118 117 119 121 127 133 133 130 129 126 122 118 116 113 109 103 99 101 98 98 97 93 91 88 85 79 76 75 70 66 64 62 60 60 60
130 128 126 123 121 118 116 115 114 114 114 116 116 122 130 129 127 125 123 119 116 113 107 99 97 99 93 95 94 92 90 90 88 86 80 76 72 69 67 64 62 61 58
131 128 126 125 122 118 116 113 111 111 112 111 110 114 123 125 122 121 120 118 116 114 105 97 95 98 99 94 89 87 91 93 91 87 84 79 74 68 65 61 60 58 56
131 129 127 125 122 120 118 114 112 110 110 110 109 112 118 120 120 118 118 115 113 111 101 100 99 102 97 95 92 91 92 91 92 88 82 76 70 65 61 59 56 52 49
132 130 130 128 124 121 118 116 113 112 111 111 111 112 116 118 117 120 117 114 112 108 105 102 102 102 99 97 95 95 93 92 89 85 79 73 68 62 57 51 44 39 33
135 132 130 130 127 123 118 115 113 112 112 113 114 115 117 119 118 113 117 112 109 106 108 106 104 104 103 101 98 96 95 92 87 80 73 67 59 50 42 33 26 20 15
141 137 134 133 131 127 122 118 114 112 112 112 114 115 117 119 121 119 116 112 109 109 108 109 108 106 102 101 99 96 97 90 83 74 64 55 44 33 23 16 11 6 3
148 144 141 138 135 131 127 122 117 115 113 113 113 112 111 112 114 113 112 111 109 108 107 107 107 103 100 99 100 97 94 86 73 58 44 32 20 12 7 4 1 359 356
155 153 149 146 143 139 135 131 125 121 117 115 115 115 115 113 111 110 109 109 109 108 106 105 103 101 97 94 97 94 88 71 52 31 18 9 3 1 357 354 352 350 349
162 161 158 155 152 149 145 140 135 130 125 118 117 117 117 117 116 114 112 110 109 108 105 103 99 98 95 90 87 80 64 31 10 4 1 357 354 349 346 346 344 342 340
167 166 166 166 164 161 158 153 148 143 138 130 124 120 118 121 120 118 114 111 109 110 107 102 98 92 89 77 57 32 356 343 342 340 340 341 340 339 338 337 335 333 331
173 173 174 174 175 175 173 169 163 157 152 145 136 129 126 125 123 121 117 113 109 106 107 96 89 81 61 31 355 336 327 321 319 321 324 328 331 331 330 328 327 326 324
181 182 182 183 183 185 183 182 178 175 169 164 156 147 141 136 132 127 121 114 107 102 94 82 62 36 360 338 327 320 318 316 315 315 317 319 322 324 325 323 321 320 320
188 189 189 190 191 190 188 188 188 187 185 182 176 168 161 155 152 143 132 126 106 92 64 33 9 353 340 327 323 320 318 317 316 314 314 314 315 316 318 318 318 317 317
192 193 193 195 196 193 193 194 196 195 194 195 191 186 178 173 167 160 152 150 125 31 1 353 343 338 334 328 322 319 316 314 313 312 313 314 314 314 314 314 314 315 315
195 194 196 196 196 198 199 199 199 202 203 203 202 198 198 192 184 182 186 207 260 308 322 324 326 328 328 328 325 321 317 315 314 314 314 315 315 316 315 315 315 314 314
196 196 197 199 200 200 202 203 203 204 206 206 205 209 206 206 209 215 221 239 279 298 311 317 320 320 322 324 322 321 320 317 317 317 318 318 319 319 319 318 317 316 315
200 201 202 204 204 206 209 209 211 211 212 211 212 215 214 217 220 224 233 251 275 298 304 308 314 317 320 321 321 321 322 320 317 319 321 322 323 322 320 318 317 316 315
206 208 209 211 213 216 217 217 218 218 218 217 218 220 220 221 224 227 240 255 271 289 296 301 308 313 316 318 318 321 325 326 325 322 321 319 321 320 318 317 316 315 315
213 214 215 217 218 220 221 220 221 221 220 220 222 223 221 224 229 235 243 256 273 284 291 298 301 308 314 318 316 317 318 322 324 320 320 317 318 319 318 317 317 316 316
217 219 221 223 223 225 226 224 223 222 221 222 223 224 227 229 232 236 245 258 269 280 291 297 302 303 310 318 316 315 317 316 316 319 318 318 318 319 319 317 318 317 317
222 224 225 226 227 229 227 224 223 222 223 224 226 227 229 230 231 238 246 256 268 280 290 297 301 303 304 314 323 317 317 316 318 317 316 317 318 318 318 317 318 318 317
226 228 229 230 230 231 228 224 223 225 226 229 229 229 230 230 232 238 246 254 265 278 289 295 299 301 302 307 311 318 320 319 319 318 317 317 317 318 318 318 318 318 319
229 230 231 233 233 232 229 226 226 227 230 232 230 228 228 230 234 239 245 252 264 278 288 292 295 297 300 304 308 311 315 317 319 317 315 315 317 317 317 316 316 317 317
232 233 234 233 233 232 229 227 227 228 230 229 227 227 229 233 237 241 246 253 264 275 284 289 291 295 298 302 306 309 311 313 314 317 316 316 316 315 316 316 316 317 317